Terminal Aerodrome Forecast
Issued by NWS

Home | Current Version | Previous Version | Text Only | Print | Product List | Glossary On
Versions: 1 2 3 4 5 6 7 8 9 10 11 12 13
000
FTAK31 PAJN 012300
TAFAYA
TAF
PAYA 012330Z 0200/0224 36005KT P6SM SCT080 BKN100
     FM020400 VRB03KT 5SM BR FEW005 SCT100
     FM020900 00000KT 1SM BR SCT005 BKN015 BKN100
     FM021400 12003KT 5SM BR FEW005 SCT015 BKN100
     FM021800 14007KT P6SM BKN100
      AMD LTD TO CLD VIS AND WIND 0201/0210=

USA.gov is the U.S. government's official web portal to all federal, state and local government web resources and services.